Terminal Aerodrome Forecast
Issued by NWS

Home | Current Version | Previous Version | Text Only | Print | Product List | Glossary On
Versions: 1 2 3 4 5 6 7 8 9 10 11 12 13 14 15 16 17 18 19 20 21 22 23 24 25 26
000
FTUS45 KRIW 031903 AAA
TAFPNA
TAF AMD
KPNA 031903Z 0319/0418 32018G25KT P6SM SCT080 BKN150
     FM040100 29007KT P6SM SCT080 BKN150
     FM041100 VRB06KT P6SM BKN050 OVC100
      AMD LTD TO CLD VIS AND WIND=

USA.gov is the U.S. government's official web portal to all federal, state and local government web resources and services.